Location: Gajan
(43.0218°N, 1.1244°E)
Time: 07:50:38
(UTC+00:00)

Cosmos 1386 Rocket - Pass Details

Date: 22 April 2021
Orbit: 928 x 1007 km, 83.0° (Epoch: 07 May)

Event Time Altitude Azimuth Distance (km) Brightness Sun altitude
Rises 22:14:22 0° 352° (N) 3,604 8.5 -30.0°
Reaches altitude 10° 22:16:52 10° 353° (N) 2,650 7.6 -30.2°
Enters shadow 22:22:22 75° 10° (N) 966 4.4 -30.6°
